Погода в Поныри

Погода в Поныри : погода сейчас, прогноз погоды и архив. Всё, что Вы хотите узнать о погоде в Поныри!

Хотите узнать прогноз погоды в Поныри? Тогда Вам сюда: Погода в Поныри

Поиск расширенной информации на нашем сайте:

Другие новости

Новости СМИ2

Главная страница сайта

Новости сайта

03.07.2017

Напоминаем, что на нашем специализированном сайте Метеоцентр.Азия вы можете получить высокодетализированные автоматические прогнозы погоды по пунктам России, СНГ и мира в авиационном формате (включающие направление и скорость ветра, видимость, явления погоды, количество и форму облачности, нижнюю и верхнюю границу облачности).


Погода в Поныри - сегодня

Время (UTC), дата Ветер
(°,м/с) 
Видим.   Явления Облачность Т
(°С)
Тd
(°С)
f(%) Тe
(°С)
Pmin
(гПа)
dP
(гПа)
Po
(мм)
O2
(г/м3)
Тmin Tmax R s Состояние
почвы
03 13.02.18 090 (В) 10 км    ясно 
-10.8 -12.8 85 -16  1021.7  -0.2  742  312  -12         
09 13.02.18 090 (В) 7{10}  20000 м    10/0 средняя 
[As op]
-8.8 -12.6 74 -14  1022.6  0.4  743  310           
12 13.02.18 080 (В) 7{10}  20000 м    10/10 600 м 
[Sc]
-8.5 -8.7 98 -14  1012.2  -0.2  742  310           
18 13.02.18 090 (В) 7{10}  20000 м  слаб. снег  10/10 300 м 
[Frnb|Ns]
-9.7 -12.3 81 -16  1023.6  0.8  743  312    -8.3  0.0     
21 13.02.18 090 (В) 10 км  слаб. снег  10/10 300 м 
[Frnb|Ns]
-10.2 -12.2 85 -16  1023.8  0.2  743  312           
09 14.02.18 110 (В) 10 км  позёмок{снег}  8/0 средняя 
[Ac trans]
-8.1 -11.3 78 -12  1026.1  745  310           
21 14.02.18 110 (В) 10 км  {снег}  10/10 300 м 
[St]
-8.1 -9.9 87 -11  1029.6  0.8  748  311           
09 15.02.18 110 (В) 10 км    10/10 600 м 
[St]
-6 -7.9 86 -9  1032.4  750  310           
12 15.02.18 100 (В) 20000 м    10/10 600 м 
[St]
-5.2 -7.3 85 -8  1032.5  0.2  750  309           
15 15.02.18 110 (В) 20000 м    10/10 600 м 
[St]
-5.6 -7.4 87 -9  1032.8  0.3  750  309           
21 15.02.18 110 (В) 10 км    10/10 300 м 
[St]
-6.3 -7.8 89 -9  1033.2  -0.2  751  310           
09 16.02.18 140 (ЮВ) 10 км  {снег}  10/0 средняя 
[As op]
-3.3 -6.1 81 -6  1032.3  -0.2  750  307           
15 16.02.18 130 (ЮВ) 10 км    10/0 средняя 
[As op]
-3.4 -5.5 85 -6  1030.5  -0.4  749  306      0.3     
21 16.02.18 150 (ЮВ) 10 км    10/10 600 м 
[Sc]
-5 -6.3 91 -7  1029.3  -0.7  748  308           
09 17.02.18 150 (ЮВ) 4000 м  снежные кристаллы  10/0 средняя 
[As op]
-3.4 -4.5 92 -6  1025.1  -1.3  745  304           
21 17.02.18 150 (ЮВ) 4000 м  слаб. снег  10/10 300 м 
[Frnb|Ns]
-4.1 -5 93 -5  1021.6  -0.9  742  304           
06 18.02.18 210 (ЮЗ) 0500 м  смерч (торнадо){туман}  ?/?  
-3.2 -3.2 100 -3  1021  0.5  742  303  -4.3    10  равномерный
сухой снег
100% 
09 18.02.18 210 (ЮЗ) 1000 м  слаб. снег{туман}  10/10 300 м 
[Frnb|Ns]
-2.3 -3.2 94 -3  1020.6  -0.3  742  302           
15 18.02.18 220 (ЮЗ) 10 км    10/10 600 м 
[Sc]
-0.6 -3.4 81 1019.5  -0.4  741  300      0.2     
21 18.02.18 220 (ЮЗ) 10 км  слаб. снег  10/10 300 м 
[Frnb|Ns]
-2.1 -3.3 91 -3  1019.4  -0.6  741  301           
09 19.02.18 290 (З) 10 км  {снег}  9/9 600 м 
[Sc]
-3.2 -5.3 85 -5  1019.8  0.6  741  303           
21 19.02.18 250 (З) 10 км  {снег}  9/0 средняя 
[Ac trans]
-7.2 -8.9 88 -10  1021.5  742  308           
09 20.02.18 280 (З) 10 км  {снег}  ясно 
-8.3 -11.1 80 -11  1022.7  0.4  743  310           
15 20.02.18 270 (З) 20000 м    ясно 
-8.7 -12.5 74 -8  1023.2  0.2  743  310      0.0     
21 20.02.18 260 (З) 10 км  снежные кристаллы  9/9 600 м 
[Sc]
-10.3 -11.6 90 -12  1024.2  0.1  744  312           
Время (UTC), дата Ветер
(°,м/с) 
Видим.   Явления Облачность Т
(°С)
Тd
(°С)
f(%) Тe
(°С)
Pmin
(гПа)
dP
(гПа)
Po
(мм)
O2
(г/м3)
Тmin Tmax R s Состояние
почвы

Для получения пояснительной информации подведите курсор к названию столбца.

ПОГОДА в Поныри - архив

Всё, что Вы хотите узнать о погоде в Поныри - удобно и подробно!

Выберите нужную дату (начиная с 1 января 2015* года) и нажмите кнопку "Найти".
Будут отображены архивные сводки погоды по пункту Поныри, начиная с указанной даты.


Отображать данные в формате CSV (для использования в таблицах Excel)


Внимание! Наш архив погоды предназначен исключительно для личного некоммерческого использования в познавательных целях. Если Вам необходимы официальные справки о состоянии погоды (для производственных, юридических, коммерческих и т.п. целей), обращайтесь в органы Росгидромета.

*Примечание: данная дата относится к архиву по метеостанциям СССР (Россия, СНГ, Балтия).
Архив по метеостанциям Зарубежной Европы и Азии (кроме Китая) хранится 10 дней, по другим регионам земного шара (Китай, Африка, Америка, Австралия, Океания) - 1 день.

Поныри - район местоположения метеостанции


Название, широта, долгота, высота метеостанции:
Поныри 52.3°ш. 36.3°д. 251 м над ур. моря [Российская Федерация]

Дополнительная информация

В oтличие oт бoльшинства пoгoдных сайтoв мы публикуем пoдрoбную метеoинфoрмацию в детальнoм прoфессиoнальнoм фoрмате.

Характеристики температуры и влажнoсти вoздуха измеряются на высoте 2 м в тени вдали oт зданий и деревьев.
Скoрoсть ветра измеряется на высoте 10 м (на урoвне рoста челoвека скoрoсть ветра ниже в 1.5-2 раза). Если метеoстанция нахoдится в гoрoде или в лесу, тo скoрoсть ветра занижена на 2-4 м/с пo сравнению с oткрытым местoм. Скoрoсть ветра над акватoриями крупных рек и oзёр, а также на вершинах хoлмoв на 2-5 м/с выше, чем в oбычных услoвиях.
Атмoсфернoе давление в разных тoчках местнoсти мoжет значительнo oтличаться oт давления на метеoстанции, в зависимoсти oт услoвий рельефа (при пoдъёме на 10 м давление пoнижается примернo на 1 мм рт.ст.).